Volver al catálogo

STARLINK-32765

ActivoComunicacionesVLEO
NORAD 62747·PAYLOAD·🇺🇸 United States

Lanzado Jan 21, 2025 desde Cape Canaveral Space Force Station

Loading…

Próximos Pases (próximas 24 horas)

TLE

ActualizadoSource: CelesTrak SupGP

Época: Sep 15, 2026, 03:16 UTC

1 62747C 25014N   26258.13659722  .00037158  00000+0  13459-2 0  2581
2 62747  42.9997 164.5705 0001186 273.2258 312.2112 15.27558561    19

Sigue STARLINK-32765 en tiempo real con AllMySat

Download on the App Store